CZ-6A DEB, 54521

Orbit data source: Space-Track

CZ-6A DEB, 54521 is space debris in SSO originally from a launch on Fri, 11 Nov 2022 UTC launched from the Taiyaun Space Center, China (TSC). Debris objects in space refer to the collection of defunct objects orbiting the Earth. Examples of debris include non-operational satellites, rocket bodies, and fragments generated from explosions, collisions, or faulty payload assembly.

Loading next visibility...
Identifier
54521, 2022-151JZ
Orbit
SSO
Country
Flag of CNCN / PRC
Related business
Manufacturer
SAST
Mission
Spacecraft
Bus & Motor
Unknown
Mass
Unknown
Launch date (UTC)
2022-11-11 (4 years ago)
Launch vehicle
Unknown
Launch site
Taiyaun Space Center, China (TSC)
Object type
Payload
Rocket body
Debris
Shape & HBR
Unknown shape, 0.1 m
Radar Cross Section
Medium (>0.1 m² and <1 m²)

Expand to show TLE details & history
Last TLE update: 2 days ago

TLE from 2 days ago
0 CZ-6A DEB
1 54521U 22151JZ  26171.37784133  .00000236  00000-0  18187-3 0  9990
2 54521  98.8858 142.0377 0139702  79.1349 282.5500 13.97379167183494
Epoch: 2026-06-20T09:04Z
TLE epoch observation values (Epoch: 2026-06-20T09:04:05.490Z)
Latitude
-0.00009°
Longitude
97.42151°
Altitude
885.017 km
Speed
7.42 km/s
True Right ascension
09h 28m 09s
True Declination
0° 00' 00"
Sunlit
Object was in daylight at epoch
Visualization orbit readout
Latitude
Unknown
Longitude
Unknown
Altitude
Unknown
Speed
Unknown
Apparent Right ascension
Unknown
Apparent Declination
Unknown
Sunlit
N/A
Visualization observer readout
Local Sidereal Time
21:29:40
Azimuth
Unknown
Elevation
Unknown
Doppler factor
Unknown
Orbital elements
Apogee altitude
1,001.76 km
Perigee altitude
798.403 km
Semi-major axis
7,278.218 km
Eccentricity
0.01397
Inclination
98.8858°
RAAN
142.0377°
Arg. of periapsis
79.1349°
True anomaly
280.98163°
Mean anomaly
282.55°
Eccentric anomaly
281.76639°
Mean motion
3.49547 °/min
Orbital period
102.99 mins
BSTAR
0.00018187
Loading maneuver chart data...
Computing Atmospheric mass density...
Loading historical data...
Loading historical data...
Loading historical data...
Loading historical data...
Loading historical data...
Loading historical data...
Loading historical data...

Documentation

Showing up to 5 results
|